Simultaneous Nadir Overpasses (SNOs) Predictions

Prediction of SNOs between NOAA-20 and AQUA Satellite Orbit:

Table of predicted SNOs for the next 14.0 days since TLE Epoch: 7/9/2022
Index Date (NOAA-20) Time (NOAA-20) Lat,Lon (NOAA-20) SZA (NOAA-20 ) Date (AQUA) Time (AQUA) Lat,Lon (AQUA) SZA (AQUA ) Distance(km) Time Diff (sec)
1 07/10/2022 10:26:16 65.38,-115.83 87.50 07/10/2022 10:27:28 65.11,-113.99 87.18 90.93 72
2 07/10/2022 11:12:35 -78.61, 82.37 107.76 07/10/2022 11:12:36 -78.61, 82.33 107.75 0.95 1
3 07/10/2022 12:01:03 81.31, -64.94 64.50 07/10/2022 11:59:50 81.80, -64.98 64.72 54.30 73
4 07/13/2022 02:38:45 78.52, 30.29 72.75 07/13/2022 02:39:07 78.52, 30.24 72.75 1.11 22
5 07/13/2022 03:29:20 -78.92,-159.86 107.86 07/13/2022 03:28:24 -78.92,-159.89 107.81 0.81 56
6 07/15/2022 18:04:59 -78.34, -22.31 106.57 07/15/2022 18:05:41 -78.34, -22.29 106.61 0.49 42
7 07/15/2022 18:55:28 78.91, 148.50 72.58 07/15/2022 18:54:53 78.90, 148.38 72.63 2.74 35
8 07/18/2022 09:31:11 78.12, -75.06 74.20 07/18/2022 09:32:13 78.13, -74.95 74.13 2.82 62
9 07/18/2022 10:21:39 -78.81, 96.29 106.82 07/18/2022 10:21:24 -78.80, 96.18 106.78 2.47 15
10 07/21/2022 01:47:49 78.71, 44.12 73.83 07/21/2022 01:47:54 78.70, 44.04 73.84 1.92 5



Historial Predications of SNOs between NOAA-20 and AQUA
